#timestamp,LO_Frequency,Hit,StdDev 
1569762015.8,286047007.2,Y
1569762035.6,286047006.4,P
1569762055.5,286047006.3,N
1569762075.3,286047006.5,N
1569762095.2,286047008.1,Y
1569762115.0,286047001.8,P
1569762115.9,286047001.8,N
1569762135.7,286047002.4,N
1569762155.6,286047000.1,N
1569762175.4,286047002.3,N
1569762195.3,286047000.3,N
1569762215.1,286047002.7,N
1569762216.0,286047002.7,N
1569762235.8,286047001.5,N
1569762255.7,286047002.7,N
1569762275.5,286047002.7,N
1569762295.4,286047002.7,N
1569762315.2,286046998.2,N
1569762335.0,286046999.5,N
1569762335.9,286046999.5,N
1569762355.8,286046999.4,N
1569762375.6,286047000.3,N
1569762395.4,286047000.6,N
1569762415.3,286046998.2,N
1569762435.1,286046998.4,N
1569762455.9,286046999.3,N
1569762475.7,286047000.8,N
1569762495.5,286046998.9,N
1569762515.4,286046999.1,N
1569762535.2,286047001.1,N
1569762555.0,286047000.3,N
1569762556.0,286047000.3,N
1569762575.8,286047001.0,N
1569762595.6,286047000.6,N
1569762615.5,286047000.8,N
1569762635.3,286046998.5,N
1569762655.1,286047000.8,N
1569762675.9,286046999.1,N
1569762695.7,286046999.3,N
1569762715.6,286046997.3,N
1569762735.4,286046995.0,Y
1569762755.2,286046994.9,P
1569762775.1,286046996.4,N
1569762776.0,286046996.4,N
1569762795.8,286046997.4,N
1569762815.7,286046996.8,N
1569762835.5,286046996.7,N
1569762855.3,286046997.1,N
1569762875.2,286046994.9,Y
1569762895.0,286047001.0,P
1569762895.9,286047001.0,N
1569762915.8,286046996.9,N
1569762935.6,286046997.0,N
1569762955.4,286046997.5,N
1569762975.3,286046996.7,N
1569762995.1,286046997.3,N
1569763015.9,286046997.0,N
1569763035.7,286046999.4,N
1569763055.8,286046996.9,N
1569763075.6,286046997.3,N
1569763095.5,286046997.1,N
1569763115.3,286046997.9,N
1569763135.1,286046995.9,N
1569763155.9,286046993.9,Y
1569763175.7,286046998.0,P
1569763195.6,286046997.6,P
1569763215.4,286046997.2,P
1569763235.2,286046997.3,Y
1569763255.1,286046998.5,P
1569763256.0,286046998.5,P
1569763275.8,286047000.1,N
1569763295.7,286047001.1,N
1569763315.5,286047002.3,N
1569763335.3,286047000.0,N
1569763355.2,286047000.0,N
1569763375.0,286047002.3,N
1569763375.9,286047002.3,N
1569763395.7,286047002.8,N
1569763415.6,286047002.5,N
1569763435.4,286047004.4,N
1569763455.3,286047003.3,N
1569763475.1,286047004.6,N
1569763476.0,286047004.6,N
1569763495.8,286047006.7,Y
1569763515.7,286047004.5,P
1569763535.5,286047007.5,P
1569763555.4,286047004.5,N
1569763575.2,286047005.7,N
1569763595.0,286047003.1,N
1569763595.9,286047003.1,N
1569763615.8,286047003.0,N
1569763635.6,286047001.4,N
1569763655.4,286047004.3,N
1569763675.3,286047002.1,N
1569763695.1,286047001.9,N
1569763715.9,286046999.7,N
1569763735.7,286046999.9,N
1569763755.5,286047001.0,N
1569763775.4,286047000.1,N
1569763795.2,286046999.9,N
1569763815.1,286047002.3,N
1569763816.0,286047002.3,N
1569763835.8,286047001.9,N
1569763855.6,286047002.5,N
1569763875.5,286047004.0,N
1569763895.3,286047003.2,N
1569763915.1,286047005.2,N
1569763935.9,286047005.6,N
1569763955.7,286047005.7,N
1569763975.6,286047005.8,N
1569763995.4,286047005.9,N
1569764015.2,286047003.0,N
1569764035.1,286047004.4,N
1569764036.0,286047004.4,N
1569764055.8,286047004.0,N
1569764075.7,286047002.8,N
1569764095.5,286047002.6,N
1569764115.3,286047001.7,N
1569764135.2,286047001.9,N
1569764155.0,286047001.7,N
1569764155.9,286047001.7,N
1569764175.8,286047003.8,N
1569764195.6,286047001.4,N
1569764215.4,286047000.5,N
1569764235.3,286047000.0,N
1569764255.1,286047000.0,N
1569764275.9,286047001.1,N
1569764295.7,286047000.2,N
1569764315.5,286047000.2,N
1569764335.4,286047000.6,N
1569764355.2,286047000.2,N
1569764375.0,286047002.7,N
1569764376.0,286047002.7,N
1569764395.8,286047004.3,N
1569764415.6,286047002.3,N
1569764435.5,286047000.8,N
1569764455.3,286047000.8,N
1569764475.1,286047000.5,N
1569764495.9,286047000.8,N
1569764515.7,286046999.2,N
1569764535.6,286046999.3,N
1569764555.4,286046997.4,N
1569764575.2,286046997.3,N
1569764595.1,286046996.9,N
1569764596.0,286046996.9,N
1569764615.8,286046996.6,N
1569764635.7,286046996.8,N
1569764655.5,286046999.6,N
1569764675.3,286046999.2,N
1569764695.2,286046997.0,N
1569764715.0,286046994.9,N
1569764715.9,286046994.9,N
1569764735.8,286046994.9,N
1569764755.6,286046997.9,N
1569764775.4,286046995.3,N
1569764795.3,286046997.6,N
1569764815.1,286046996.2,N
1569764835.9,286046995.3,N
1569764855.7,286046993.4,N
1569764875.5,286046993.8,N
1569764895.4,286046996.1,N
1569764915.2,286046995.1,N
1569764935.1,286046994.9,N
1569764936.0,286046994.9,N
1569764955.8,286046996.0,N
1569764975.6,286046995.7,N
1569764995.5,286046995.2,N
1569765015.3,286046998.0,N
1569765035.2,286046997.6,N
1569765055.9,286046999.2,N
1569765075.7,286047001.0,N
1569765095.6,286046999.0,N
1569765115.4,286047001.0,N
1569765135.2,286046999.0,N
1569765155.1,286046999.1,N
1569765156.0,286046999.1,N
1569765175.8,286046998.8,N
1569765195.7,286047000.5,N
1569765215.5,286047000.9,N
1569765235.3,286047000.0,N
1569765255.2,286047001.1,N
1569765275.0,286047000.4,N
1569765275.9,286047000.4,N
1569765295.8,286046999.8,N
1569765315.6,286047002.3,N
1569765335.4,286047000.5,N
1569765355.3,286047000.3,N
1569765375.1,286047000.8,N
1569765395.9,286046998.3,N
1569765415.7,286047001.1,N
1569765435.5,286047000.9,N
1569765455.4,286046996.6,N
1569765475.2,286046997.3,N
1569765495.0,286046997.2,N
1569765495.9,286046997.2,N
1569765515.8,286046997.8,N
1569765535.6,286046995.4,N
1569765555.5,286046995.6,N
1569765575.3,286046995.3,N
1569765595.3,286046997.1,N
